Location: Neuvy Saint Sepulchre
(46.5953°N, 1.8122°E)
Time: 19:42:45
(UTC+01:00)

ISS - Pass Details

Date: 30 November 2021
Orbit: 417 x 422 km, 51.6° (Epoch: 06 December)

Event Time Altitude Azimuth Distance (km) Brightness Sun altitude
Rises 19:29:09 0° 295° (WNW) 2,379 1.0 -23.6°
Reaches altitude 10° 19:31:18 10° 301° (WNW) 1,512 -0.3 -24.0°
Enters shadow 19:33:03 26° 315° (NW) 863 -1.9 -24.3°
